Fecha, hora, temperatura, viento dirección y velocidad, humedad y presión.

  • 16-01-2019 16:00:00 | 9.60°C | Noroeste |3.00 km/h | 40.00% | 0.00 hPa
  • 16-01-2019 15:00:00 | 11.40°C | Norte |4.00 km/h | 38.00% | 0.00 hPa
  • 16-01-2019 14:00:00 | 11.70°C | Nordeste |5.00 km/h | 38.00% | 0.00 hPa
  • 16-01-2019 13:00:00 | 9.40°C | Nordeste |4.00 km/h | 42.00% | 0.00 hPa
  • 16-01-2019 12:00:00 | 5.00°C | Este |2.00 km/h | 47.00% | 0.00 hPa
  • 16-01-2019 11:00:00 | 0.60°C | Calma |0.00 km/h | 65.00% | 0.00 hPa
  • 16-01-2019 10:00:00 | -2.50°C | Calma |0.00 km/h | 66.00% | 0.00 hPa
  • 16-01-2019 09:00:00 | -3.00°C | Calma |0.00 km/h | 66.00% | 0.00 hPa
  • 16-01-2019 08:00:00 | -3.00°C | Calma |0.00 km/h | 64.00% | 0.00 hPa
  • 16-01-2019 07:00:00 | -3.00°C | Calma |0.00 km/h | 66.00% | 0.00 hPa
  • 16-01-2019 06:00:00 | -2.80°C | Calma |0.00 km/h | 64.00% | 0.00 hPa
  • 16-01-2019 05:00:00 | -2.70°C | Calma |0.00 km/h | 62.00% | 0.00 hPa
  • 16-01-2019 04:00:00 | -2.70°C | Calma |0.00 km/h | 64.00% | 0.00 hPa
  • 16-01-2019 03:00:00 | -2.30°C | Calma |0.00 km/h | 62.00% | 0.00 hPa
  • 16-01-2019 02:00:00 | -2.20°C | Calma |0.00 km/h | 63.00% | 0.00 hPa
  • 16-01-2019 01:00:00 | -1.90°C | Calma |0.00 km/h | 61.00% | 0.00 hPa
  • 16-01-2019 00:00:00 | -1.50°C | Calma |0.00 km/h | 61.00% | 0.00 hPa
  • 15-01-2019 23:00:00 | -1.10°C | Calma |0.00 km/h | 60.00% | 0.00 hPa
  • 15-01-2019 22:00:00 | -0.50°C | Calma |0.00 km/h | 58.00% | 0.00 hPa
  • 15-01-2019 21:00:00 | 0.20°C | Calma |0.00 km/h | 55.00% | 0.00 hPa
  • 15-01-2019 20:00:00 | 1.30°C | Calma |0.00 km/h | 52.00% | 0.00 hPa
  • 15-01-2019 19:00:00 | 2.60°C | Calma |0.00 km/h | 48.00% | 0.00 hPa
  • 15-01-2019 18:00:00 | 4.60°C | Calma |0.00 km/h | 44.00% | 0.00 hPa
  • 15-01-2019 17:00:00 | 6.80°C | Noroeste |2.00 km/h | 37.00% | 0.00 hPa
    • diseño web asturias Información sobre el estado de las mareas, altura de la marejada, temperatura del agua y otros datos de Gijón en Asturias.

      Surf Gijón